Flag for Uruguay Weather past 2 weeks in San José de Mayo, Uruguay

Now
57 °F

Mostly cloudy.


Feels Like: 57 °F
Forecast: 54 / 70 °F
Wind: 5 mph from East

Location: Carrasco

Current Time: Sep 3, 2014 at 4:29:56 AM

Latest Report: Sep 3, 2014 at 4:00 AM


Visibility: N/A

Pressure: 30.04 "Hg

Humidity: 94%

Dew point: 55 °F

Location of San José de MayoLocation

Historic Weather in San José de Mayo — Graph

°F

San José de Mayo temperature yesterday

Maximum temperature yesterday: 63 °F (at 3:00 PM)
Minimum temperature yesterday: 55 °F (at 2:00 AM)
Average temperature yesterday: 59 °F

Past Weeks' High & Low Weather Summary

 TemperatureHumidityPressure
High84 °F (Aug 21, 3:00 PM)100% (Aug 22, 8:00 PM)30.24 "Hg (Aug 22, 8:00 PM)
Low39 °F (Aug 29, 7:00 AM)40% (Aug 21, 5:00 PM)29.39 "Hg (Aug 25, 10:00 PM)
Average57 °F81%29.92 "Hg
* Reported Aug 19 3:00 AM — Sep 3 3:00 AM, San José de Mayo, Weather by CustomWeather, © 2014

Note: Actual official high and low records may vary slightly from our data, if they occured in-between our weather recording intervals... More about our weather records

Advertising

San José de Mayo weather history for previous 24 hours

 ConditionsComfort  
Time TempWeatherWind HumidityBarometerVisibility
3:00 AM
Sep 3
57 °FDrizzle. Mostly cloudy.5 mph94%30.04 "Hg4 mi
2:00 AM57 °FMostly cloudy.6 mph94%30.04 "HgN/A
1:00 AM57 °FPassing clouds.8 mph94%30.04 "HgN/A
12:00 AM59 °FPassing clouds.12 mph88%30.01 "HgN/A
11:00 PM
Sep 2
59 °FPassing clouds.10 mph82%30.01 "HgN/A
10:00 PM61 °FPassing clouds.10 mph77%29.98 "HgN/A
9:00 PM63 °FPassing clouds.8 mph77%29.98 "HgN/A
8:00 PM59 °FPassing clouds.8 mph88%29.95 "HgN/A
7:00 PM59 °FPassing clouds.8 mph88%29.92 "HgN/A
6:00 PM59 °FPartly cloudy.9 mph88%29.89 "HgN/A
5:00 PM61 °FPartly sunny.10 mph88%29.86 "HgN/A
4:00 PM63 °FPartly sunny.13 mph83%29.86 "HgN/A
3:00 PM63 °FPartly sunny.12 mph83%29.83 "HgN/A
2:00 PM59 °FBroken clouds.17 mph94%29.83 "HgN/A
1:00 PM59 °FRain. More clouds than sun.13 mph94%29.92 "Hg2 mi
12:11 PM59 °FRain. More clouds than sun.7 mph88%29.95 "Hg4 mi
12:00 PM59 °FMostly cloudy.8 mph88%29.95 "HgN/A
11:00 AM59 °FMostly cloudy.8 mph88%29.98 "HgN/A
10:00 AM57 °FBroken clouds.14 mph88%29.95 "HgN/A
9:00 AM57 °FBroken clouds.10 mph88%29.95 "HgN/A
8:00 AM57 °FBroken clouds.14 mph88%29.95 "HgN/A
7:00 AM57 °FOvercast.12 mph88%29.95 "HgN/A
6:00 AM57 °FOvercast.6 mph88%29.98 "HgN/A
5:00 AM57 °FOvercast.13 mph88%29.92 "HgN/A
4:00 AM57 °FClear.12 mph88%29.92 "Hg10 mi
Weather by CustomWeather, © 2014

See weather overviewHow to use our weather pages